Simultaneous Nadir Overpasses (SNOs) Predictions

Prediction of SNOs between AQUA and METOP-A Satellite Orbit:

Table of predicted SNOs for the next 14.0 days since TLE Epoch: 6/20/2015
Index Date (AQUA) Time (AQUA) Lat,Lon (AQUA) SZA (AQUA ) Date (METOP-A) Time (METOP-A) Lat,Lon (METOP-A) SZA (METOP-A ) Distance(km) Time Diff (sec)
1 06/20/2015 04:05:39 -73.87, -67.11 129.54 06/20/2015 04:04:33 -73.85, -67.14 129.56 2.97 66
2 06/20/2015 04:55:08 73.94, 100.38 50.53 06/20/2015 04:55:11 73.94, 100.43 50.54 1.65 3
3 06/20/2015 05:44:37 -74.13, -92.41 129.27 06/20/2015 05:45:49 -74.12, -91.81 129.31 18.05 72
4 06/22/2015 23:39:52 -73.86, -0.64 129.55 06/22/2015 23:38:52 -73.87, -0.66 129.53 1.62 60
5 06/23/2015 00:29:21 73.93, 166.85 50.52 06/23/2015 00:29:31 73.92, 166.78 50.52 2.38 10
6 06/23/2015 01:18:55 -74.37, -26.54 129.00 06/23/2015 01:20:04 -74.34, -24.84 129.10 51.15 69
7 06/25/2015 19:14:05 -73.87, 65.78 129.48 06/25/2015 19:13:11 -73.90, 65.81 129.45 2.81 54
8 06/25/2015 20:03:34 73.94,-126.74 50.60 06/25/2015 20:03:50 73.93,-126.77 50.59 1.21 16
9 06/25/2015 20:53:12 -74.59, 39.38 128.70 06/25/2015 20:54:18 -74.61, 42.27 128.79 85.26 66
10 06/28/2015 14:48:17 -73.91, 132.14 129.33 06/28/2015 14:47:29 -73.91, 132.26 129.32 3.58 48
11 06/28/2015 15:37:45 73.93, -60.27 50.70 06/28/2015 15:38:08 73.94, -60.33 50.71 2.55 23
12 07/01/2015 10:22:28 -73.86,-161.31 129.21 07/01/2015 10:21:49 -73.87,-161.42 129.19 3.72 39
13 07/01/2015 11:11:57 73.94, 6.16 50.87 07/01/2015 11:12:27 73.95, 6.10 50.88 2.20 30




NCC Satellite Simultaneous Nadir Overpasses (SNOs) Prediction Service
